Back to catalog

E3TESTER

AliveScienceSSO
NORAD 66662·PAYLOAD·🇰🇷 South Korea

Launched Nov 26, 2025 from Naro Space Center

Loading…

Next Passes (next 24 hours)

TLE

FreshSource: Space-Track

Epoch: Sep 13, 2026, 18:05 UTC

1 66662U 25274N   26256.75362771  .00001935  00000-0  18423-3 0  9994
2 66662  97.7486 185.1092 0016444  84.4220 275.8875 14.94471660 43465

Track E3TESTER in real time with AllMySat

Download on the App Store